Other Surface Observations
Issued by NWS

Home | Current Version | Previous Version | Text Only | Print | Product List | Glossary On
Versions: 1 2 3 4 5 6 7 8 9 10 11 12 13 14 15 16 17 18 19 20 21 22 23 24 25 26 27 28 29 30 31 32 33 34 35 36 37 38 39 40 41 42 43 44 45 46 47 48 49 50
000
SXUS52 KTAE 271918
OSOTAE
OSOTAE
North Florida/South Alabama/Southwest Georgia Weather Roundup
National Weather Service Tallahassee Florida
300 PM EDT MON APR 27 2015

Note: "fair" indicates few or no clouds below 12,000 feet with no
significant weather and/or obstructions to visibility.

!FLZ017-115-028-034-025-272000
...North Florida...

CITY           SKY/WX    TMP DP  RH WIND       PRES   REMARKS
TALLAHASSEE    CLOUDY    76  63  64 NW6       29.84R
APALACHICOLA   LGT RAIN  74  69  85 W6        29.84R
PERRY          CLOUDY    76  69  80 SW5       29.84R
CROSS CITY       N/A     76  68  76 W6        29.83S
JACKSONVILLE   CLOUDY    74  66  76 NE9       29.81R
$$

!FLZ112-006-005-002-011-272000
...Florida Panhandle...

CITY           SKY/WX    TMP DP  RH WIND       PRES   REMARKS
MARIANNA       CLOUDY    70  62  76 CALM      29.84F
BONIFAY        FAIR      69  61  75 N5        29.86F
PANAMA CITY NW LGT RAIN  70  66  87 N3        29.83F
TYNDALL AFB    LGT RAIN  72  69  92 NE3       29.83F
TYND DRONE APT LGT RAIN  72  72 100 N3        29.83S
DE FUNIAK SPR  FAIR      68  63  84 N8        29.88R
EGLIN AFB      TSTM      68  64  88 NW6       29.88R
DESTIN         LGT RAIN  69  65  86 N5        29.87R
HURLBURT       TSTM      68  63  85 N5        29.88R
CRESTVIEW      TSTM      66  63  90 NW7       29.91R FOG
PENSACOLA      TSTM      64  63  96 N10       29.91R FOG
$$

!ALZ063-066-272000
...South Alabama...

CITY           SKY/WX    TMP DP  RH WIND       PRES   REMARKS
DOTHAN         CLOUDY    69  59  70 N6        29.90S
OZARK CAIRNS   CLOUDY    69  57  66 W5        29.87S
FT RUCKER HELI CLOUDY    70  58  65 N6        29.86S
RUCKER HELI 3  NOT AVBL
RUCKER HELI 2  FAIR      69  59  70 NW6       29.86S
FLORALA APT    CLOUDY    66  61  82 N5        29.91S
ANDALUSIA      CLOUDY    70  58  65 N5        29.90R
TROY           CLOUDY    72  55  55 N7        29.90R
EUFALA         FAIR      73  54  51 N7        29.86S
MOBILE         TSTM      60  60 100 SE12      29.91F FOG
$$

!GAZ120>161-272000
...Southwest and South Central Georgia...

CITY           SKY/WX    TMP DP  RH WIND       PRES   REMARKS
THOMASVILLE    FAIR      70  64  83 N6        29.85S
BAINBRIDGE     CLOUDY    73  64  73 W6        29.87R
MOODY AFB      CLOUDY    72  62  69 N6        29.83R
VALDOSTA       CLOUDY    74  63  68 VRB3      29.83R
MOULTRIE       CLOUDY    70  61  73 N5        29.87R
BLAKELY        CLOUDY    72  61  68 CALM      29.88R
ALBANY         CLOUDY    71  57  61 VRB3      29.89R
TIFTON         FAIR      67  58  71 CALM      29.86R
FITZGERALD     FAIR      72  53  52 CALM      29.88R
CORDELE        FAIR      75  54  48 N6        29.87R
AMERICUS       FAIR      72  54  53 N6        29.88S
HOMERVILLE     FAIR      72  63  73 N3        29.85R
$$

!GMZ750-755-770-775-272000
...Coastal and Buoy Obs...

STATION/POSITION TIME  TEMP    WIND        PRES    VSBY  WAVE
                       AIR SEA DIR/SP/G                  HT/PER
                 (UTC) (F)     (DEG/KT/KT) (MB)    (MI)  (FT/S)
KEATON BEACH     1900   75     270/ 13/ 17 1010.5R
CEDAR KEY        1900   74     310/  7/  9 1010.3F
C TOWER          1900   71     260/ 10/ 13 1011.2R
APALACHICOLA BUO 1850   73 76   20/ 17/ 19 1010.3R         2/ 7
PANAMA CITY BUOY 1850   72 76   60/ 14/ 17 1009.1F         3/ 6
MOBILE BUOY      1850   70 77  360/ 17/ 31 1008.6R         4/ 7
ORANGE BCH AL BU 1850   69 75   20/ 21/ 25 1009.9R         4/ 5
$$



USA.gov is the U.S. government's official web portal to all federal, state and local government web resources and services.